SCP
0 0 0 0 0 0 0 0 0 0 0 0 0 0 0 0 0 0 0 0 0 0 0 0 0 0 0 0 0 0 0 0 0 0 0 0 0 0
0 0 0 0 0 0 0 0 0 0 0 0 0 0 0 0 0 0 0 0 0 0 0 0 0 0 0 0 0 0 0 0 0 0 0 0 0 0
0 0 0 0 0 0 0 0 0 0 0 0 0 0 0 0 0 0 0 0 0 0 0 0 0 0 0 0 0 0 0 0 0 0 0 0 0 0
0 0 0 0 0 0 0 0 0 0 0 0 0 0 0 0 0 0 0 0 0 0 0 0 0 0 0 0 0 0 0 0 0 0 0 0 0 0
0 0 0 0 0 0 0 0 0 0 0 0 0 0 0 0 0 0 0 0 0 0 0 0 0 0 0 0 0 0 0 0 0 0 0 0 0 0
0 0 0 0 0 0 0 0 0 0 0 0 0 0 0 0 0 0 0 0 0 0 0 0 0 0 0 0 0 0 0 0 0 0 0 0 0 0
0 0 0 0 0 0 0 0 0 0 0 0 0 0 0 0 0 0 0 0 0 0 0 0 0 0 0 0 0 0 0 0 0 0 0 0 0 0
0 0 0 0 0 0 0 0 0 0 0 0 0 0 0 0 0 0 0 0 0 0 0 0 0 0 0 0 0 0 0 0 0 0 0 0 0 0
0 0 0 0 0 0 0 0 0 0 0 0 0 0 0 0 0 0 0 0 0 0 0 0 0 0 0 0 0 -0 -0 0 0 0 0 0 0 0
0 0 0 0 0 0 0 0 0 0 0 0 0 0 0 0 0 0 0 0 0 0 0 0 0 0 0 0 0 0 -0 0 0 0 0 0 0 0
0 0 0 0 0 0 0 0 0 0 0 0 0 0 0 0 0 0 0 0 0 0 0 0 0 0 0 0 0 0 0 0 0 0 0 0 0 0
0 0 0 0 0 0 0 0 0 0 0 0 0 0 0 0 0 0 0 0 0 0 0 0 0 0 0 0 0 0 0 0 0 0 0 0 0 0
0 0 0 0 0 0 0 0 0 0 0 0 0 0 0 0 0 0 0 0 0 0 0 0 0 0 0 0 0 0 0 0 0 0 0 0 0 0
0 0 0 0 0 0 0 0 0 0 0 0 0 0 0 0 0 0 0 0 0 0 0 0 0 0 0 0 0 0 0 0 0 0 0 0 0 0
0 0 0 0 0 0 0 0 0 0 0 0 0 0 0 0 0 0 0 0 0 0 0 0 0 0 0 0 0 0 0 0 0 0 0 0 0 0
0 0 0 0 0 0 0 0 0 0 0 0 0 0 0 0 0 0 0 0 0 0 0 0 0 0 0 0 0 0 0 0 0 0 0 0 0 0
0 0 0 0 0 0 0 0 0 0 0 0 0 0 0 0 0 0 0 0 0 0 0 0 0 0 0 0 0 0 0 0 0 0 0 0 0 0
0 0 0 0 0 0 0 0 0 0 0 0 0 0 0 0 0 0 0 0 0 0 0 0 0 0 0 0 0 0 0 0 0 0 0 0 0 0
0 0 0 0 0 0 0 0 0 0 0 0 0 0 0 0 0 0 0 0 0 0 0 0 0 0 0 0 0 0 0 0 0 0 0 0 0 0
0 0 0 0 0 0 0 0 0 0 0 0 0 0 0 0 0 0 0 0 0 0 0 0 0 0 0 0 0 0 0 0 0 0 0 0 0 0
0 0 0 0 0 0 0 0 0 0 0 0 0 0 0 0 0 0 0 0 0 0 0 0 0 0 0 0 0 0 0 0 0 0 0 0 0 0
0 0 0 0 0 0 0 0 0 0 0 0 0 0 0 0 0 0 0 0 0 0 0 0 0 0 0 0 0 0 0 0 0 0 0 0 0 0
0 0 0 0 0 0 0 0 0 0 0 0 0 0 0 0 0 0 0 0 0 0 0 0 0 0 0 0 0 0 0 0 0 0 0 0 0 0
Wind_Speed
1 1 1 0 1 1 2 3 3 2 1 0 1 2 2 3 5 4 4 8 8 8 8 8 8 9 9 9 9 9 9 9 9 9 9 9 9 9
1 2 1 0 0 0 1 1 1 2 2 1 1 1 2 4 6 5 6 9 9 9 9 9 9 9 10 10 9 9 9 9 9 9 9 9 9 9
2 2 2 1 1 1 1 1 1 2 2 1 2 2 3 4 4 4 4 4 5 9 8 8 9 9 9 9 9 8 9 9 9 9 9 9 9 9
2 2 2 2 2 1 1 2 2 2 3 3 2 2 2 3 4 4 3 3 3 7 7 7 7 7 7 7 7 7 8 8 8 8 8 8 8 8
2 2 2 2 2 2 2 2 2 2 2 4 3 2 2 2 3 3 4 3 3 4 5 5 6 5 5 6 6 6 6 7 7 7 7 7 7 8
2 2 2 2 2 2 2 3 3 4 4 4 3 2 2 2 2 2 2 2 2 3 4 4 5 5 5 6 5 5 5 5 6 6 6 6 6 7
3 3 3 4 5 3 3 3 4 3 3 4 3 2 2 2 1 1 2 1 2 2 2 2 2 2 3 4 4 5 4 4 4 4 4 4 4 5
3 3 4 5 6 7 7 7 6 4 4 3 2 3 2 2 2 2 2 1 0 1 1 1 1 1 1 1 2 3 2 3 3 3 3 3 3 3
3 3 3 4 5 5 7 8 7 6 4 3 3 2 2 2 3 3 2 1 1 0 1 1 1 1 1 1 1 1 1 1 1 2 1 1 1 1
3 3 4 3 3 4 5 5 5 4 3 2 2 1 2 2 3 3 2 2 2 1 1 0 0 1 1 1 1 2 1 1 1 1 1 1 1 1
3 3 3 3 4 5 5 5 4 4 5 6 5 4 4 4 4 4 3 2 1 0 0 0 0 1 1 1 1 2 2 1 1 1 1 2 2 2
3 3 4 3 4 4 4 4 3 2 2 3 4 5 4 4 4 3 3 2 1 1 1 1 0 0 1 1 1 1 1 1 2 2 2 2 2 1
2 1 1 3 4 3 3 2 2 2 2 3 3 3 2 2 2 1 1 2 2 1 1 2 1 1 1 1 1 1 1 1 1 1 2 3 2 2
2 1 1 2 3 3 2 3 4 3 2 2 2 2 1 1 1 1 0 1 1 1 2 2 1 1 1 1 1 1 1 1 1 2 2 3 3 4
1 2 2 3 3 2 2 3 3 2 2 1 1 0 0 1 1 1 1 1 1 1 1 2 2 2 1 1 1 1 1 2 2 2 2 2 2 2
1 2 3 3 3 2 2 2 1 1 1 1 0 0 0 1 1 1 1 1 1 1 1 1 1 2 2 2 1 1 2 2 2 2 2 3 3 3
2 2 2 1 1 1 1 1 1 1 1 1 0 0 0 1 1 0 0 0 0 1 1 1 0 1 2 2 2 2 2 2 2 2 2 3 3 3
4 2 1 1 2 2 1 1 1 1 1 1 1 1 1 1 1 0 0 1 1 1 1 1 0 0 1 2 4 3 2 3 2 2 2 3 3 3
3 2 2 2 2 2 2 2 2 1 1 1 2 2 1 1 1 1 1 1 1 2 1 1 1 1 2 3 2 4 3 3 2 2 3 3 4 4
3 3 3 3 3 3 3 3 2 1 2 2 2 2 2 2 2 2 2 2 2 2 2 2 2 2 3 3 3 3 5 4 3 3 3 3 3 4
3 3 3 3 3 3 3 3 3 3 3 2 3 3 2 2 2 2 2 3 3 2 3 3 3 3 2 2 3 3 3 4 5 3 3 3 3 3
3 3 3 3 3 3 3 3 3 3 3 3 3 3 2 3 3 3 3 3 3 3 4 3 1 2 2 3 4 4 4 3 3 5 6 5 3 3
4 3 3 3 3 3 3 3 4 3 3 3 3 3 3 3 3 3 3 3 3 3 3 2 2 2 2 3 3 4 5 4 3 3 3 4 6 8
Wind_Direction
130 125 132 212 190 197 183 179 171 181 211 131 81 47 70 74 67 76 77 77 78 78 76 75 78 79 77 74 71 69 67 65 65 64 65 64 67 68
71 89 76 38 83 127 176 199 189 167 159 89 80 62 76 85 77 75 75 77 74 76 76 76 77 78 77 74 70 68 67 67 68 68 68 66 67 66
48 67 46 38 58 59 96 108 110 125 141 111 77 69 80 92 85 81 77 75 77 77 77 76 77 75 73 73 71 68 66 66 67 68 68 67 68 68
66 68 44 53 54 53 90 106 110 117 140 135 113 87 83 100 95 89 80 79 82 81 79 78 77 75 74 75 74 70 68 68 68 67 66 66 68 68
79 77 61 71 61 59 81 91 98 104 114 128 115 93 90 95 86 77 72 56 74 80 77 76 75 74 75 75 75 74 73 71 68 65 62 62 64 69
70 70 71 82 87 86 85 90 102 104 109 117 116 108 101 94 95 90 74 47 45 48 55 62 65 66 66 69 72 73 72 72 69 64 59 57 60 63
67 57 66 77 82 86 96 104 110 112 116 119 121 117 116 121 130 126 107 74 48 43 46 36 40 46 47 49 59 65 68 69 70 65 54 52 57 57
77 61 67 66 76 77 84 91 101 118 128 129 135 147 161 158 137 140 130 111 81 30 48 38 40 31 20 28 38 48 60 64 62 59 50 45 44 45
81 76 74 69 73 80 76 75 74 79 100 138 146 166 172 171 157 152 153 143 158 107 110 79 39 5 340 353 1 359 3 11 22 24 22 23 27 19
79 88 92 79 78 90 88 76 65 58 67 90 132 148 146 156 163 157 147 118 89 76 72 115 18 314 323 319 323 311 313 324 328 346 360 348 328 314
67 74 88 85 80 95 95 87 70 52 62 74 84 84 86 100 124 123 120 122 117 120 61 147 273 307 300 300 328 326 310 306 313 322 335 336 315 298
67 58 66 84 88 104 110 108 93 59 62 67 64 60 70 83 99 127 152 146 136 173 157 172 155 351 283 283 313 323 327 325 311 300 299 304 309 284
99 72 48 76 85 102 119 125 144 126 91 86 77 65 63 68 78 95 151 168 167 191 170 171 175 180 218 277 286 281 286 291 294 283 275 277 272 247
141 148 123 101 94 99 113 116 114 104 99 92 82 63 53 36 26 31 130 179 220 233 185 176 179 183 188 238 273 291 283 275 266 272 285 284 269 252
159 157 137 114 101 92 97 111 113 111 114 112 110 83 313 317 345 44 66 75 71 65 113 176 176 173 195 219 253 268 278 277 262 268 278 279 277 274
118 104 101 93 87 83 81 89 108 138 148 150 153 343 39 59 53 44 53 30 27 6 37 87 180 180 198 213 227 259 262 267 273 283 284 280 273 258
132 99 88 93 92 67 53 50 67 105 128 131 136 122 129 113 87 36 88 134 163 311 336 10 26 213 225 222 243 259 270 275 271 281 280 283 277 272
137 143 167 178 190 198 199 198 182 190 192 182 187 195 209 211 196 168 173 195 225 254 274 293 333 327 257 237 221 245 265 271 279 272 255 264 281 289
158 182 195 204 210 213 213 210 215 215 197 193 199 209 222 229 222 222 221 231 245 251 250 231 216 212 273 296 276 214 236 272 276 273 261 253 270 286
199 203 209 211 211 213 216 215 218 212 203 214 220 222 217 218 224 228 226 237 246 252 255 239 229 227 240 273 284 275 230 239 260 271 274 269 272 277
211 217 219 217 218 219 221 218 214 215 215 214 221 223 217 215 229 236 238 238 240 244 253 257 256 245 236 228 259 273 269 234 232 246 263 278 290 296
216 219 223 223 222 221 219 217 219 222 219 221 226 225 220 221 232 241 242 241 244 247 256 265 257 222 218 240 265 279 288 297 270 242 237 237 265 282
217 216 217 222 225 219 212 214 218 224 223 222 228 231 227 228 234 240 244 242 247 253 258 266 261 241 246 249 262 275 284 295 304 305 297 275 261 262